Regional Weather Roundup
Issued by NWS

Home | Current Version | Previous Version | Graphics & Text | Print | Product List | Glossary On
Versions: 1 2 3 4 5 6 7 8 9 10 11 12 13 14 15 16 17 18 19 20 21 22 23 24 25 26 27 28 29 30 31 32 33 34 35 36 37 38 39 40 41 42 43 44 45 46 47 48 49 50
000
ASUS45 KABQ 280901
RWRNM
WEATHER ROUNDUP FOR NEW MEXICO
NATIONAL WEATHER SERVICE ALBUQUERQUE NM
200 AM MST SUN DEC 28 2014

NOTE: "FAIR" MEANS FEW OR NO CLOUDS BELOW 12,000 FEET AGL WITH NO
       SIGNIFICANT WEATHER OR OBSTRUCTIONS TO VISION.

      THIS PRODUCT IS RELEASED AS TWO VERSIONS.  ONE VERSION NEAR
      THE TOP OF THE HOUR CONTAINING PRELIMINARY DATA FROM ALBUQUERQUE
      AND OTHER STATIONS.  A FINAL VERSION WITH ADDITIONAL DATA IS
      ISSUED ABOUT 10 MINUTES AFTER THE HOUR.

NMZ501-503-504-510>518-281000-
NORTHWEST PLATEAU/NORTHCENTRAL MOUNTAINS

CITY           SKY/WX    TMP DP  RH WIND       PRES   REMARKS
FARMINGTON     CLEAR      3  -1  83 E5        30.25F WCI  -6
SANTA FE       CLEAR     17   8  67 N13       30.15F WCI   4
TAOS           MOCLDY    -6  -9  84 N6        30.16S WCI -18
ANGEL FIRE     FAIR      -9 -13  85 CALM      30.08F

$$
NMZ402-403-502-505>509-281000-
WESTCENTRAL MOUNTAINS/SOUTHWEST MOUNTAINS

CITY           SKY/WX    TMP DP  RH WIND       PRES   REMARKS
GALLUP         PTCLDY    -2  -7  79 E3        30.23F
GRANTS         CLEAR      6   3  87 W8        30.23F WCI  -7
SILVER CITY    PTCLDY    19  12  73 N8        30.25F WCI   9

$$
NMZ407-409-411-412-281000-
SOUTHERN DESERTS

CITY           SKY/WX    TMP DP  RH WIND       PRES   REMARKS
DEMING         CLEAR     21  17  84 NW6       30.26F WCI  13
HOLLOMAN AFB   PTCLDY    20  15  79 CALM      30.25S
ALAMOGORDO     PTCLDY    25  19  80 W3        30.26S
T OR C         CLEAR     25  10  53 NW8       30.24F WCI  16

$$
NMZ519>523-281000-
CENTRAL VALLEYS/CENTRAL HIGHLANDS

CITY           SKY/WX    TMP DP  RH WIND       PRES   REMARKS
ALBUQUERQUE    PTCLDY    23   9  55 N6        30.23F WCI  16
DOUBLE EAGLE   CLEAR     18   7  61 W8        30.21F WCI   7
MORIARTY ARPT  FAIR      18   8  64 NW13      30.15F WCI   5
CLINES CORNERS CLEAR     13   5  70 NW21      30.05F WCI  -5
BELEN          FAIR      12   7  80 NE6       30.23F WCI   3
SOCORRO        NOT AVBL

$$
NMZ524>526-539-540-281000-
SOUTHCENTRAL MOUNTAINS

CITY           SKY/WX    TMP DP  RH WIND       PRES   REMARKS
RUIDOSO        NOT AVBL

$$
NMZ527>531-281000-
NORTHEAST HIGHLANDS/NORTHEAST PLAINS

CITY           SKY/WX    TMP DP  RH WIND       PRES   REMARKS
LAS VEGAS      PTCLDY    14   3  61 NW3       30.03F
RATON          PTCLDY    -1  -6  79 NE6       30.03F WCI -13
CLAYTON        CLEAR     20  11  68 W12       30.05F WCI   8

$$
NMZ532>537-281000-
EASTCENTRAL PLAINS

CITY           SKY/WX    TMP DP  RH WIND       PRES   REMARKS
TUCUMCARI      CLEAR     15  11  83 N7        30.12S WCI   5
CANNON AFB     CLEAR     16  12  86 SW8       30.14F WCI   5
CLOVIS AIRPORT CLEAR     12   7  79 SW7       30.14F WCI   2

$$
NMZ028-029-538-281000-
SOUTHEAST PLAINS

CITY           SKY/WX    TMP DP  RH WIND       PRES   REMARKS
ROSWELL        CLEAR     17  12  80 W3        30.21F
ARTESIA        CLEAR     23  21  93 W9        30.24F WCI  13
CARLSBAD       CLEAR     28  25  88 W3        30.24F
HOBBS            N/A     27  27 100 SW5       30.25F WCI  21


$$


USA.gov is the U.S. government's official web portal to all federal, state and local government web resources and services.